sat.trackr.live / text

‹ back to catalog

GPS BIII-7 (PRN 01)

NORAD 62339 · 2024-242A

PAYLOAD ACTIVE UNKNOWN

§ Identity

Operator
Country
US
Launch date
2024-12-17
Launch site
AFETR
Launch vehicle
Mass (kg)
RCS (m²)

Purposes: nav

External: N2YO · Heavens-Above · Gunter

§ Orbital elements

Epoch: 2026-05-23T16:00:21.083616Z

Period
717.95 min
Inclination
54.8596°
Eccentricity
0.0017373
Mean motion
2.00571082 rev/d
Perigee alt
20,135.4 km
Apogee alt
20,227.7 km
Semi-major
26,559.7 km
B*
0.0000e+0
RAAN
335.1744°
Arg perigee
3.8345°
Mean anomaly
179.6490°
Rev number
1,076

§ Raw data

GPS BIII-7  (PRN 01)1 62339U 24242A   26143.66691069 -.00000087  00000+0  00000+0 0  99902 62339  54.8596 335.1744 0017373   3.8345 179.6490  2.00571082 10768

JSON: /api/v1/satellites/62339 · /tle

For live sub-satellite position, see the globe view (requires WebGL).

§ Visibility from observer

Set your observer location to see the next 7 days of passes ≥ 10°. The values pass through the URL so the page stays shareable.

No JS? Fill the form by hand. The geolocation button needs JavaScript.